Location: Unspecified
(0.0000°N, 0.0000°E)
Time: 13:09:32
(UTC+00:00)

STARLINK-34921 - Pass Details

Date: 22 February 2026
Orbit: 474 x 476 km, 53.2° (Epoch: 14 March)

Event Time Altitude Azimuth Distance (km) Brightness Sun altitude
Rises 19:14:31 0° 218° (SW) 2,514 6.8 -15.0°
Reaches altitude 10° 19:16:41 10° 221° (SW) 1,634 5.8 -15.6°
Maximum altitude 19:20:20 66° 303° (WNW) 516 2.6 -16.5°
Enters shadow 19:22:36 21° 22° (NNE) 1,089 3.8 -17.0°
